Weather History for Peterborough, ON

Change the Weather History Date:

Saturday, April 6, 2013

  Actual Average Record
Temperature  
Mean Temperature 19 °F -  
Max Temperature 35 °F 53 °F 69 °F (1997)
Min Temperature 3 °F 33 °F 3 °F (2013)
Degree Days  
Heating Degree Days 46    
Moisture  
Dew Point 15 °F    
Average Humidity 59    
Maximum Humidity 100    
Minimum Humidity 30    
Precipitation  
Precipitation 0.08 in 0.09 in - ()
Sea Level Pressure  
Sea Level Pressure 30.23 in    
Wind  
Wind Speed 6 mph ()    
Max Wind Speed 20 mph    
Max Gust Speed 18 mph    
Visibility 9.0 miles    
Events Rain , Snow    
Averages and records for this station are not official NWS values.
T = Trace of Precipitation, MM = Missing Value Source: Averaged Metar Reports

Daily Weather History Graph

Daily Weather History Graph

Search for Another Location

Airport:

Trip Planner

Search our weather history database for the weather conditions in past years. The results will help you decide how hot, cold, wet, or windy it might be!

Date:

Astronomy

Apr. 06, 2013 Rise Set
Actual Time 6:45 AM EDT 7:47 PM EDT
Civil Twilight 6:15 AM EDT 8:16 PM EDT
Nautical Twilight 5:40 AM EDT 8:52 PM EDT
Astronomical Twilight 5:03 AM EDT 9:29 PM EDT
Moon 4:35 AM EDT (4/6) 4:06 PM EDT (4/6)
Length of Visible Light 14h 01m
Length of Day
13h 01m
Waning Crescent, 15% of the Moon is Illuminated
Apr 6
Waning Crescent
Apr 10
New
Apr 18
First Quarter
Apr 25
Full
May 2
Last Quarter

Hourly Weather History & Observations

Time (EDT) Temp. Windchill Dew Point Humidity Pressure Visibility Wind Dir Wind Speed Gust Speed Precip Events Conditions
12:00 AM 26.6 °F 17.5 °F 15.8 °F 64% 30.17 in 9.0 mi NW 9.2 mph - N/A   Clear
1:00 AM 24.8 °F 17.9 °F 15.8 °F 69% 30.20 in 9.0 mi WNW 5.8 mph - N/A   Clear
2:00 AM 7 °F - 2 °F 72% 30.19 in - NNE 19.6 mph - -  
2:00 AM 23.0 °F 18.4 °F 17.6 °F 80% 30.22 in 9.0 mi NW 3.5 mph - N/A   Scattered Clouds
2:38 AM 24.8 °F 19.1 °F 17.6 °F 74% 30.23 in 9.0 mi West 4.6 mph - N/A Snow Light Snow
2:51 AM 23.0 °F 18.4 °F 17.6 °F 80% 30.24 in 9.0 mi West 3.5 mph - N/A   Mostly Cloudy
3:00 AM 24.8 °F 20.5 °F 17.6 °F 74% 30.24 in 9.0 mi West 3.5 mph - N/A   Scattered Clouds
4:00 AM 23.0 °F - 19.4 °F 86% 30.25 in 9.0 mi Calm Calm - N/A   Mostly Cloudy
5:00 AM 21.2 °F 16.4 °F 19.4 °F 93% 30.27 in 9.0 mi WNW 3.5 mph - N/A   Clear
6:00 AM 21.2 °F 14.9 °F 19.4 °F 93% 30.27 in 9.0 mi North 4.6 mph - N/A   Clear
7:00 AM 17.6 °F - 17.6 °F 100% 30.30 in 9.0 mi Calm Calm - N/A   Clear
8:00 AM 8 °F - 1 °F 63% 30.16 in - NNE 17.3 mph - -  
8:00 AM 23.0 °F - 21.2 °F 93% 30.32 in 9.0 mi Calm Calm - N/A   Clear
9:00 AM 28.4 °F 24.6 °F 19.4 °F 69% 30.33 in 9.0 mi SE 3.5 mph - N/A   Clear
10:00 AM 32.0 °F 27.5 °F 15.8 °F 51% 30.33 in 9.0 mi SE 4.6 mph - N/A   Clear
11:00 AM 33.8 °F 29.6 °F 6.8 °F 32% 30.33 in 9.0 mi SSE 4.6 mph - N/A   Clear
12:00 PM 37.4 °F 32.8 °F 8.6 °F 30% 30.32 in 9.0 mi SW 5.8 mph - N/A   Clear
1:00 PM 37.4 °F 30.3 °F 15.8 °F 41% 30.30 in 9.0 mi SSE 10.4 mph - N/A   Clear
2:00 PM 15 °F - 7 °F 60% 30.14 in - ENE 10.4 mph - -  
2:00 PM 39.2 °F 33.6 °F 17.6 °F 42% 30.29 in 9.0 mi South 8.1 mph - N/A   Clear
3:00 PM 37.4 °F 29.3 °F 17.6 °F 45% 30.29 in 9.0 mi SSE 12.7 mph 18.4 mph N/A   Overcast
4:00 PM 37.4 °F 29.8 °F 14.0 °F 38% 30.25 in 9.0 mi SSE 11.5 mph - N/A   Overcast
5:00 PM 39.2 °F 33.6 °F 15.8 °F 39% 30.22 in 9.0 mi SSE 8.1 mph - N/A   Overcast
6:00 PM 39.2 °F 34.2 °F 17.6 °F 42% 30.20 in 9.0 mi SSE 6.9 mph - N/A   Mostly Cloudy
7:00 PM 37.4 °F 32.1 °F 17.6 °F 45% 30.19 in 9.0 mi SE 6.9 mph - N/A   Overcast
8:00 PM 15 °F - 7 °F 58% 30.14 in - NNW 2.3 mph - -  
8:00 PM 35.6 °F 30.7 °F 15.8 °F 44% 30.16 in 9.0 mi ESE 5.8 mph - N/A   Overcast
9:00 PM 35.6 °F 30.7 °F 12.2 °F 38% 30.17 in 9.0 mi SE 5.8 mph - N/A   Overcast
10:00 PM 35.6 °F 31.7 °F 14.0 °F 41% 30.13 in 9.0 mi East 4.6 mph - N/A   Overcast
11:00 PM 35.6 °F 32.8 °F 15.8 °F 44% 30.11 in 9.0 mi ESE 3.5 mph - N/A   Overcast
11:17 PM 35.6 °F 31.7 °F 14.0 °F 41% 30.09 in 9.0 mi East 4.6 mph - N/A Rain Light Rain